Tracking 31080 objects as of 20-Jul-2025
HD Live streaming from Space Station
objects crossing your sky now

SL-8 DEB

Track SL-8 DEB now!
10-day predictions


NORAD ID: 22025
Int'l Code: 1991-009CJ
Perigee: 1,435.7 km
Apogee: 1,662.8 km
Inclination: 73.9 °
Period: 116.9 minutes
Semi major axis: 7920 km
RCS: 0.0299 m2 (small)
Launch date: February 12, 1991
Source: Commonwealth of Independent States (former USSR) (CIS)
Launch site: PLESETSK MISSILE AND SPACE COMPLEX (PKMTR)

Note: This is SATELLITE DEBRIS
Your satellite tracking list
Your tracking list is empty




NASA's NSSDC Master Catalog

Two Line Element Set (TLE):
1 22025U 91009CJ  25198.94074568  .00000049  00000-0  51686-3 0  9990
2 22025  73.9383 173.6083 0143318 129.6295 263.2914 12.31669480544198
Source of the keplerian elements: AFSPC